Temp
16 16 15 16 16 17 18 19 19 20 20 20 19 19 19 19 19 20 20 20 20 20 20 20 20 20 20 21 21 22 22 22 22 22 22 23 23 23 21 21 21 20 20 20 20 21 21 21 21 21 20 20 20 20 20 19 19 19 19 18 18 18 18 17 17 17 16 16 16 16 16 16 16 16 17 17 17 18 17 17 17 17 17 17 16 16
16 16 16 17 17 18 18 19 20 20 20 20 19 19 19 19 20 20 21 20 20 20 20 19 19 20 20 20 21 22 22 22 22 22 22 22 22 22 22 21 21 21 20 20 19 20 21 21 21 21 20 20 20 19 19 19 19 19 19 18 18 18 17 17 17 17 16 16 16 16 16 16 16 16 17 17 17 17 17 17 17 17 17 16 16 16
15 16 16 17 18 18 18 19 19 19 20 19 19 19 19 19 20 20 20 19 19 20 20 19 19 19 20 20 20 21 21 22 22 22 22 22 22 22 22 21 21 21 21 20 19 18 19 20 20 20 20 20 20 19 19 19 19 19 18 18 18 18 17 17 17 17 16 16 16 16 16 16 16 17 17 18 18 17 17 17 17 17 17 16 16 16
15 16 17 18 18 18 18 19 19 19 19 19 18 18 18 19 20 20 19 19 19 19 20 19 19 18 19 19 20 20 21 22 22 22 22 22 22 22 22 22 21 21 21 21 20 18 18 19 19 19 19 20 20 19 19 19 19 19 18 18 18 18 17 17 17 17 16 16 16 16 16 16 16 16 17 17 17 17 17 17 17 17 17 17 16 16
16 17 18 18 18 18 18 18 19 18 18 18 18 18 19 19 20 20 20 19 19 19 19 19 18 18 19 19 20 20 21 21 22 22 22 22 22 22 22 22 22 21 21 21 20 19 18 18 18 19 19 19 19 19 19 19 19 18 18 18 18 17 17 17 17 16 16 16 15 16 16 16 16 16 16 16 16 17 17 17 17 17 17 17 16 16
17 18 18 18 18 18 18 18 18 18 18 18 18 18 19 20 20 20 20 19 18 18 19 19 18 19 20 19 20 20 20 21 21 21 21 22 22 22 21 21 21 21 21 21 21 19 18 18 18 18 19 19 18 19 19 19 19 18 18 18 18 17 17 17 17 16 16 16 15 15 15 15 15 15 16 16 16 16 17 17 17 17 17 16 16 16
17 18 18 17 17 18 18 18 18 18 18 17 18 19 20 20 20 20 19 19 19 19 19 19 19 19 19 20 20 20 20 21 21 21 21 22 22 22 22 21 21 21 21 21 21 20 18 18 18 18 18 18 18 19 19 19 19 18 18 18 18 17 17 17 17 16 16 16 15 15 15 15 15 15 16 16 16 16 16 16 16 16 16 16 16 16
17 17 17 17 17 17 17 17 18 19 18 17 19 20 19 20 20 19 20 19 18 18 18 18 18 18 17 19 20 20 20 20 21 21 21 21 22 22 22 22 22 21 21 21 21 20 18 18 17 17 18 18 19 19 19 18 18 18 18 18 18 18 17 17 17 17 16 16 15 15 15 15 15 16 16 16 16 16 16 16 16 16 16 16 16 16
18 17 17 17 17 17 17 18 19 19 18 18 20 20 19 19 19 19 19 19 17 18 18 17 18 18 17 18 20 19 19 20 21 21 21 21 21 22 22 22 22 22 21 21 21 20 18 18 18 18 18 18 19 19 18 18 18 18 18 18 18 18 17 17 17 16 16 16 15 15 15 15 15 16 16 16 16 16 16 16 16 16 16 16 16 16
17 18 18 18 17 17 18 19 19 19 19 19 19 20 19 18 18 18 18 18 17 17 18 17 18 18 18 19 20 19 19 20 21 21 22 22 22 22 22 22 22 22 21 20 21 20 18 18 19 19 19 18 18 19 18 18 18 18 18 18 18 18 18 17 17 16 16 16 15 15 15 15 15 15 15 16 15 15 15 15 16 16 16 16 16 16
18 19 18 18 18 18 18 19 19 19 19 19 18 18 18 17 17 17 17 18 18 17 18 18 18 18 18 18 19 19 20 21 21 21 21 22 22 22 22 22 22 22 21 21 20 19 18 19 19 19 19 18 18 18 18 18 18 18 18 17 18 18 18 17 17 16 16 16 15 15 15 15 15 15 15 15 15 15 15 15 15 15 16 16 16 16
17 17 17 18 19 19 19 19 18 19 19 19 18 18 17 17 17 17 17 17 17 17 18 18 18 18 17 18 19 20 21 21 21 22 22 22 23 22 22 22 22 22 22 21 21 20 19 18 18 18 18 18 18 18 17 18 18 17 17 17 17 17 17 17 17 17 16 16 16 15 15 15 15 15 15 15 15 15 15 15 15 15 15 15 16 16
16 16 17 18 18 19 19 17 16 16 16 17 17 17 17 16 16 17 16 16 17 17 17 17 17 17 17 19 20 20 20 21 21 22 22 23 23 23 23 22 22 22 21 21 21 21 20 19 18 17 17 18 17 17 17 17 17 17 17 17 17 17 17 17 17 17 16 16 16 15 15 15 15 15 15 15 15 15 15 15 15 15 15 15 15 15
15 16 16 17 17 18 19 17 15 15 15 16 17 17 17 16 16 16 16 16 16 17 17 17 17 17 17 19 20 20 21 21 21 21 21 22 22 24 24 23 23 23 22 21 21 20 21 20 18 17 17 17 17 17 17 17 17 17 17 17 17 17 17 17 17 17 16 16 16 16 15 15 15 15 15 15 15 15 15 16 16 16 16 15 15 16
16 16 16 16 17 17 18 18 17 16 16 17 18 18 18 17 17 17 16 16 16 16 16 17 17 17 19 20 20 20 20 20 21 21 21 21 22 23 23 23 23 23 22 21 21 21 20 17 17 17 18 18 18 18 17 17 17 17 17 17 17 17 17 17 17 17 16 16 16 16 15 15 15 15 15 15 15 15 16 16 16 16 16 16 16 16
17 16 16 17 17 17 18 19 19 18 16 17 18 18 18 18 18 18 17 17 17 17 16 16 17 17 19 20 20 20 20 20 20 21 21 21 22 22 22 23 23 22 22 22 21 22 20 16 16 18 18 18 18 18 18 17 17 17 17 17 17 17 17 17 17 17 17 16 16 16 15 15 15 15 15 15 15 15 16 16 16 16 16 16 16 16
16 16 16 17 17 17 18 19 19 18 17 17 17 17 17 18 19 19 17 17 17 17 16 17 17 18 18 20 21 21 22 21 21 21 21 22 22 22 23 23 22 22 22 22 22 23 21 16 16 18 19 19 19 19 18 18 18 18 17 17 17 17 17 17 17 17 17 17 16 16 16 16 15 15 15 15 15 15 16 16 16 16 16 16 16 16
17 16 15 16 16 16 18 19 19 19 18 17 16 17 18 18 18 19 18 17 17 17 17 17 17 18 18 19 21 21 22 22 22 22 22 22 22 22 23 22 21 21 21 22 22 22 19 15 14 17 18 19 20 20 20 20 19 19 18 18 18 17 17 17 17 17 17 17 17 16 16 16 16 16 16 16 16 16 16 15 16 16 16 16 16 16
18 16 14 15 15 16 17 17 17 17 16 17 18 18 19 17 17 18 18 18 17 17 17 17 17 17 17 19 21 22 22 23 23 22 22 22 22 22 23 22 21 21 21 22 22 21 19 15 13 16 17 18 19 19 20 20 19 19 18 18 18 18 18 17 17 17 17 17 17 17 17 16 16 16 16 16 16 16 16 16 16 16 16 16 16 16
18 16 14 14 14 15 15 15 15 15 14 16 18 18 19 19 18 18 18 18 18 17 18 17 16 17 17 19 21 22 23 23 23 23 22 22 22 22 22 21 22 22 22 22 21 20 20 15 14 17 18 18 18 18 18 18 18 18 18 17 17 17 17 17 17 17 17 17 17 16 16 16 16 16 16 16 16 16 16 16 16 16 16 16 16 16
17 17 15 13 13 14 15 15 16 16 15 16 16 16 18 18 17 18 19 19 18 18 18 17 17 18 19 19 20 22 23 23 23 23 23 24 23 22 21 21 22 22 22 21 20 20 19 14 13 16 17 16 17 16 16 16 16 17 16 16 16 16 16 16 16 16 16 16 16 16 16 16 16 16 16 16 16 16 16 16 16 16 16 16 16 16
16 16 16 13 12 14 15 16 17 17 16 17 16 16 17 17 17 17 17 18 18 18 18 18 17 19 21 20 20 22 23 22 22 23 24 25 24 22 21 22 22 22 21 20 19 19 18 13 12 14 14 14 14 14 14 15 15 15 15 16 16 16 16 16 16 16 16 16 16 16 16 16 16 16 16 16 16 16 16 16 16 16 16 16 16 16
15 16 15 13 13 14 15 15 16 16 17 18 17 17 18 18 17 18 17 18 18 18 18 18 17 19 22 21 21 22 22 22 22 23 24 24 23 22 22 22 21 21 20 19 18 18 15 12 12 14 13 13 13 13 13 13 13 14 14 14 14 15 15 15 15 15 15 16 16 16 16 16 16 16 16 16 16 16 16 16 16 16 16 16 16 15
15 15 14 13 13 13 14 14 15 15 16 16 16 16 17 18 18 19 18 18 18 18 18 17 17 19 21 20 20 21 21 22 22 23 24 23 22 21 21 21 20 19 19 18 17 16 12 10 12 12 11 12 12 12 12 12 12 12 12 13 13 13 14 14 14 14 14 15 15 15 15 15 15 15 15 15 15 15 15 15 15 16 15 15 15 15
15 15 14 13 13 13 13 14 13 14 15 15 16 16 17 18 18 18 18 18 17 18 18 17 17 19 20 20 20 20 21 22 22 22 23 23 22 21 21 20 19 19 18 17 16 15 13 12 11 9 9 10 11 11 11 11 11 11 11 11 11 12 12 12 13 13 13 13 14 14 14 14 14 14 14 15 15 15 15 15 15 15 15 15 15 15
14 14 14 14 14 14 14 14 14 14 14 15 16 16 16 18 18 18 18 17 17 18 18 17 18 19 20 21 21 21 21 22 22 21 22 22 21 21 21 20 20 20 19 18 17 16 15 14 12 8 8 10 10 10 10 10 10 10 10 10 11 11 11 11 12 12 12 13 13 13 13 13 14 14 14 14 14 14 14 14 14 15 14 15 15 15
14 14 14 15 16 16 16 16 16 15 15 15 15 15 16 17 17 18 17 17 17 17 17 17 18 19 20 21 21 21 21 22 22 21 21 21 21 22 21 20 21 20 20 19 18 17 17 16 15 10 8 10 11 11 10 10 10 10 10 10 10 11 11 11 11 12 12 12 12 12 13 13 13 13 13 13 13 13 13 13 13 14 14 14 14 14
13 13 14 15 16 17 16 16 16 16 15 15 15 15 15 16 17 17 17 17 18 17 16 17 18 18 18 19 21 21 21 22 22 21 21 22 21 21 20 20 20 20 19 19 18 19 19 18 18 13 8 9 12 11 11 11 10 10 10 10 10 10 10 11 11 11 11 11 11 12 12 11 11 11 11 11 11 12 12 12 13 13 13 13 13 14
13 12 13 14 14 15 16 16 17 16 16 16 16 15 16 16 16 16 16 18 18 17 17 18 18 18 18 19 20 21 22 21 21 20 21 21 20 20 20 20 20 20 20 19 19 20 19 19 20 16 9 9 11 11 11 11 10 10 10 10 10 10 10 10 10 10 10 10 10 10 10 9 9 9 9 9 10 11 11 12 12 12 12 13 13 13
13 12 12 13 13 14 15 16 16 16 16 16 16 16 16 16 16 16 17 18 18 18 19 19 19 18 20 20 20 21 21 20 20 20 20 20 20 21 21 21 21 20 20 20 20 20 19 19 19 15 8 7 10 11 11 12 11 11 11 11 10 10 10 10 10 10 10 9 9 9 8 7 7 7 8 9 9 10 10 11 11 11 12 12 12 12
13 12 12 12 13 13 14 15 16 16 16 16 15 16 16 16 16 16 17 17 17 18 18 19 18 18 20 21 21 20 20 20 20 20 20 20 21 21 21 21 20 19 20 20 20 19 19 19 19 16 9 8 11 13 13 14 13 12 12 11 11 10 10 9 9 9 8 8 7 7 6 6 6 6 7 7 8 9 9 10 10 11 11 11 11 11
12 12 12 12 12 13 14 14 15 16 16 16 15 15 16 16 16 16 17 17 17 17 18 17 17 18 19 20 21 20 20 20 20 19 20 20 20 20 22 22 20 19 19 20 19 19 19 19 20 18 13 10 13 16 15 15 15 13 13 13 12 11 10 9 8 7 6 6 6 5 5 5 5 6 6 6 7 7 8 9 9 10 10 10 10 11
10 11 11 12 13 13 13 14 15 15 15 14 15 16 16 16 16 16 17 17 17 18 17 17 18 19 19 20 20 20 20 19 19 19 20 20 19 20 22 21 19 18 19 19 19 19 20 19 16 14 13 14 17 18 18 17 16 16 16 15 13 11 10 8 7 6 6 5 5 5 5 5 6 6 6 7 7 7 7 8 8 9 9 9 9 10
10 10 11 12 13 14 13 13 14 14 14 15 16 17 17 17 17 16 16 17 17 18 18 18 19 19 19 19 19 19 19 19 19 19 19 19 19 20 20 19 18 18 18 18 18 19 19 17 13 12 15 18 20 20 19 18 17 17 17 15 13 11 10 7 6 5 5 5 5 5 5 5 6 6 7 7 7 7 8 8 8 8 8 9 9 9
10 10 11 11 13 13 12 12 13 14 15 16 17 17 17 17 17 17 17 17 17 18 18 18 19 19 19 18 19 19 19 19 19 19 19 19 19 20 20 18 18 18 18 18 18 19 18 15 11 12 16 19 20 20 19 18 17 16 15 14 12 11 9 7 5 5 5 5 5 5 5 6 6 7 7 7 7 8 8 8 8 8 8 8 9 9
10 10 11 11 12 12 12 12 13 14 15 16 16 16 16 17 17 16 16 17 17 17 18 18 18 19 18 18 18 18 18 18 18 18 18 18 19 20 21 20 19 18 18 19 19 19 17 15 14 16 18 20 21 20 19 18 17 15 14 12 11 10 8 6 5 5 5 5 5 5 5 6 6 7 7 7 7 7 8 8 8 8 8 8 8 8
9 10 10 11 12 13 12 13 14 14 13 14 16 16 16 16 17 16 16 17 18 18 17 17 18 18 18 18 18 17 17 17 17 17 17 17 18 19 21 21 20 19 18 17 17 18 19 19 19 20 20 20 20 19 18 17 16 14 13 11 10 9 7 5 5 5 5 5 5 5 5 6 6 7 7 7 7 7 8 8 8 8 8 8 7 7
10 9 10 11 12 12 13 13 13 13 14 15 15 16 17 18 17 17 16 17 18 18 17 17 18 18 18 18 18 17 17 17 17 17 17 17 18 19 20 21 20 18 15 15 15 17 19 19 19 19 19 19 19 18 17 16 14 13 12 10 9 7 5 4 4 4 4 5 5 5 5 5 6 6 7 7 7 7 7 7 7 7 7 7 7 7
10 9 9 10 11 12 12 13 14 14 16 16 16 16 17 17 17 17 15 15 17 18 18 17 17 17 18 17 17 17 16 16 17 17 18 18 18 19 20 20 19 15 12 13 16 16 17 18 17 17 17 17 17 17 16 15 14 12 11 9 8 5 4 4 4 4 4 5 5 5 5 5 6 6 6 7 7 7 7 7 6 6 6 5 5 6
10 10 9 10 11 11 12 13 14 14 16 17 17 16 16 17 17 15 14 15 18 18 17 18 17 17 18 17 16 16 16 17 17 18 19 19 19 19 19 19 19 16 13 13 15 16 16 16 16 15 15 15 16 15 13 12 12 11 10 8 6 4 4 4 4 4 4 4 5 5 5 5 5 6 6 6 6 6 6 6 6 5 5 5 4 4
10 10 10 10 11 12 12 13 13 14 16 17 16 16 16 17 17 15 15 17 20 19 18 18 18 18 18 17 15 16 17 18 18 19 19 19 19 19 18 15 14 13 12 12 13 14 13 13 13 12 12 12 12 11 10 10 10 9 8 7 5 4 5 4 4 3 4 4 4 5 5 5 5 5 6 6 6 5 5 5 5 5 4 4 4 3
10 10 10 11 11 11 12 13 13 14 16 17 16 15 16 17 16 16 18 20 21 20 19 18 18 18 17 17 16 17 18 18 18 18 18 18 18 19 18 15 11 10 9 9 10 11 11 9 9 9 8 8 9 9 9 9 8 7 6 6 5 5 6 5 3 3 3 4 4 5 5 5 5 5 5 5 5 5 5 4 4 3 3 3 3 2
11 11 11 11 12 12 12 12 13 14 16 17 15 15 16 17 17 18 20 20 20 20 19 18 18 18 18 17 17 17 18 18 17 17 16 16 16 16 16 14 12 9 6 5 6 8 8 7 5 5 5 6 6 7 7 8 7 6 5 5 5 6 5 4 3 3 4 4 4 4 5 5 5 5 5 5 4 4 4 4 3 3 3 3 3 2
12 12 12 12 12 12 12 12 14 16 15 16 16 16 17 18 19 21 22 20 20 19 18 17 18 17 17 18 17 17 17 17 15 15 16 16 14 14 13 11 9 6 4 3 4 6 7 5 3 3 4 4 5 5 6 6 6 5 5 5 5 5 4 3 2 3 3 4 4 4 4 4 4 4 4 4 3 3 3 3 3 3 2 2 2 2
13 13 13 13 13 13 14 14 16 16 15 16 17 18 18 18 17 19 20 21 21 20 18 18 19 18 16 17 17 17 16 16 14 15 16 15 12 10 9 8 6 4 2 1 2 4 5 3 1 2 2 2 3 4 4 5 5 4 4 3 3 4 3 3 2 3 3 3 3 3 3 3 3 3 3 3 3 3 3 3 2 2 2 2 2 2
13 13 14 14 14 14 14 14 14 14 15 16 17 17 18 18 16 16 19 21 21 19 16 17 20 19 16 15 16 16 15 14 14 14 14 13 10 7 7 5 3 1 0 0 0 1 2 1 0 0 0 0 1 3 3 4 4 4 3 3 3 3 3 2 2 2 2 2 2 2 2 2 2 2 2 2 2 2 2 2 2 2 2 1 1 1
13 13 13 14 13 13 14 15 15 14 15 16 16 16 17 17 15 16 18 19 19 17 16 16 16 16 14 14 15 15 14 13 13 12 10 10 8 6 6 5 3 0 -1 -0 -0 -0 -0 -0 -1 -1 -2 -2 -0 1 2 3 3 3 2 2 2 3 2 2 2 2 1 1 1 1 1 1 1 1 1 1 1 1 1 2 2 2 1 1 1 1
12 13 13 13 13 13 14 15 15 15 15 16 16 16 16 16 16 15 15 14 15 16 14 13 13 13 14 14 15 15 13 12 12 12 9 8 7 5 4 3 2 -0 -1 -1 -1 -0 -0 -1 -1 -2 -3 -3 -2 -0 1 1 2 2 2 2 2 2 2 2 1 1 1 1 1 0 1 1 1 1 1 1 1 1 1 1 2 2 1 1 1 1
12 12 12 13 12 13 13 14 14 14 14 15 15 14 14 15 16 16 14 12 14 16 14 12 11 11 13 13 14 14 13 11 11 10 9 7 5 4 3 2 -0 -1 -1 -1 -1 -0 -1 -1 -2 -3 -4 -4 -3 -1 -1 -0 0 1 1 2 2 2 2 1 1 1 0 -0 -0 -0 -0 0 0 0 0 0 0 0 1 1 1 1 1 1 1 1
12 12 12 12 12 12 13 14 14 14 14 15 15 16 16 15 15 16 15 14 15 16 15 13 11 10 11 11 11 14 14 10 8 8 7 6 4 3 1 -0 -1 -1 -1 -1 -1 -1 -1 -2 -3 -3 -4 -4 -3 -2 -1 -1 -0 1 1 1 2 2 3 2 1 0 -0 -0 -0 -0 -0 -0 -0 -0 -0 -0 -0 -0 -1 -1 -1 -0 -0 -0 -0 -0
13 12 12 12 12 12 13 15 15 15 15 16 16 18 18 16 15 16 17 18 17 15 13 14 14 14 12 10 9 11 13 9 6 6 6 4 2 1 -0 -1 -1 -1 -1 -1 -1 -1 -2 -3 -3 -4 -4 -4 -3 -2 -2 -1 -0 0 0 1 2 3 3 2 1 -0 -1 -0 -0 -1 -1 -1 -1 -1 -1 -1 -1 -0 -1 -1 -2 -2 -1 -1 -1 -1
Height
817 827 830 826 826 828 828 827 827 828 828 831 836 839 839 839 838 832 827 823 822 830 834 831 832 828 823 822 818 815 815 816 816 814 813 811 810 810 811 810 809 809 806 804 806 809 811 812 814 816 817 819 820 821 822 823 824 825 827 828 829 831 833 834 836 837 839 840 842 844 845 846 847 849 850 851 852 853 854 855 856 857 858 859 860 861
817 825 823 816 817 820 823 823 824 826 827 829 834 838 839 838 835 827 824 824 823 828 831 829 833 829 822 820 816 814 815 814 812 812 811 809 808 807 807 807 806 805 803 803 804 806 807 809 811 812 814 816 817 817 818 819 821 823 824 825 826 827 829 830 832 834 835 835 836 837 838 840 843 844 846 847 848 849 851 852 852 853 854 855 856 858
823 821 812 809 811 815 819 820 822 826 827 830 834 837 840 836 833 829 826 827 826 828 830 830 833 829 820 817 815 812 812 808 805 806 806 806 806 805 803 803 803 803 802 801 801 802 803 804 806 809 811 812 813 814 816 818 820 821 822 822 822 824 825 827 829 830 831 833 834 835 837 838 840 841 842 843 844 846 847 848 849 849 850 852 853 854
819 808 801 805 809 813 819 820 822 826 828 831 834 838 839 834 833 835 832 830 828 828 829 830 833 830 822 817 813 808 806 802 800 800 799 800 800 799 797 798 799 799 799 798 798 798 799 800 803 805 806 808 809 812 814 816 817 818 818 818 819 821 822 824 825 827 829 832 834 836 837 838 839 840 841 842 843 843 844 844 845 846 847 848 849 850
804 794 795 804 807 811 819 821 822 828 831 830 832 836 836 832 831 831 830 831 831 831 828 831 837 831 820 818 811 803 802 800 797 797 796 795 795 794 794 794 793 792 792 793 794 795 796 797 798 799 800 803 805 807 808 810 811 812 813 815 817 819 820 822 823 825 828 831 833 835 836 838 838 838 839 839 839 839 840 840 840 841 843 844 845 846
797 792 795 803 807 809 815 819 819 823 831 832 828 828 829 828 827 827 829 833 839 838 830 834 843 830 814 814 810 803 803 801 795 796 795 792 791 792 792 791 789 787 787 787 788 790 792 792 793 795 797 799 801 802 803 804 805 807 809 812 814 816 817 819 821 824 826 828 829 831 832 833 833 833 833 832 832 833 835 836 837 839 840 841 841 842
796 792 793 801 807 809 813 815 814 816 828 833 822 819 823 823 825 827 829 833 840 840 831 831 841 835 819 811 806 803 803 800 795 794 792 789 788 788 787 786 785 784 783 784 784 785 787 788 790 791 793 795 795 796 798 800 802 804 807 809 810 812 813 815 818 820 823 824 826 827 827 827 827 827 827 827 830 831 833 835 836 838 838 839 839 840
789 794 796 800 805 809 812 812 808 810 824 827 815 815 822 822 826 829 828 832 836 837 834 831 835 840 831 813 802 801 802 800 796 793 789 786 784 782 780 779 779 779 778 779 780 781 782 784 785 786 787 788 789 791 794 796 798 800 802 804 807 809 810 811 813 815 817 819 821 823 824 824 824 824 824 826 828 830 832 833 835 836 837 837 838 838
779 789 793 795 802 806 804 803 803 807 818 818 810 813 820 823 827 828 829 835 837 839 840 835 834 839 831 811 801 801 803 801 794 789 786 782 780 777 775 773 772 773 773 774 775 776 777 779 780 781 782 783 784 787 790 791 793 796 798 801 804 805 806 807 809 811 812 814 816 818 820 820 821 822 823 825 826 828 829 830 831 833 834 835 836 836
776 778 780 786 796 798 796 797 799 805 812 812 810 814 820 825 829 831 833 835 839 842 840 835 835 837 824 806 802 804 804 799 789 783 780 775 773 771 770 769 768 769 770 771 771 771 773 774 775 777 778 780 781 783 785 787 790 793 795 797 799 800 802 803 805 807 808 810 812 814 815 816 817 819 821 822 823 824 826 826 827 828 829 830 832 833
774 772 777 783 787 789 792 795 796 800 805 809 815 820 826 831 832 835 835 834 841 841 832 829 830 836 829 809 801 800 793 787 783 780 776 770 768 767 766 766 764 765 767 768 769 768 769 771 772 774 775 777 778 780 783 785 787 789 791 793 794 795 798 800 802 803 805 807 808 809 810 811 812 814 817 818 819 820 821 822 822 823 825 826 827 829
777 779 782 780 779 783 790 796 798 800 802 807 816 822 830 838 838 841 841 841 844 837 827 825 826 835 834 808 794 790 782 778 778 775 771 767 765 764 763 763 761 761 762 764 766 766 767 769 770 772 773 774 776 778 780 781 783 786 787 789 790 792 794 795 797 799 801 803 803 804 805 806 808 810 812 812 812 814 815 816 817 819 821 822 823 825
784 782 780 778 779 779 786 801 809 810 811 813 816 820 832 844 845 845 846 844 841 833 827 828 830 832 821 797 789 787 778 774 773 769 767 764 762 761 760 760 758 759 760 761 763 764 765 766 767 769 770 771 773 774 776 777 779 781 783 785 787 787 789 791 794 795 797 798 798 799 801 803 805 807 807 808 808 809 810 811 813 815 816 817 818 819
789 785 780 782 784 778 779 798 813 815 816 814 811 812 822 835 842 842 843 841 837 832 826 826 831 829 809 790 783 778 771 767 766 766 765 763 762 759 758 758 757 757 758 759 760 761 762 762 763 764 766 768 769 771 772 773 775 777 779 782 783 783 785 788 790 791 793 793 793 795 798 800 802 804 804 805 806 807 808 809 810 811 811 812 813 814
778 779 776 775 777 775 774 779 788 795 803 802 796 799 805 814 824 829 833 833 833 833 830 829 829 820 802 786 776 772 769 766 764 763 762 762 761 758 758 757 755 755 756 757 758 759 760 760 760 761 762 764 765 767 769 771 772 774 775 777 778 779 782 784 786 788 789 789 791 794 796 797 799 801 802 803 804 805 806 806 807 808 808 809 809 810
769 769 766 765 764 767 771 769 770 784 801 801 795 800 803 801 804 813 819 820 822 830 832 830 820 804 790 778 769 769 768 764 762 761 760 760 758 757 757 755 754 755 756 756 756 757 757 758 758 759 760 761 762 764 766 768 770 772 772 774 775 776 779 782 783 784 785 787 789 791 793 794 796 798 799 800 800 801 802 803 804 804 805 806 807 809
769 769 765 765 765 764 765 766 768 777 790 797 800 803 800 794 794 806 817 817 819 827 825 819 809 798 792 780 766 763 761 758 760 759 758 758 756 757 756 753 753 754 754 755 754 754 755 755 755 756 756 758 759 761 762 764 766 768 770 771 773 775 777 779 780 781 783 785 787 788 789 791 792 793 794 794 795 797 798 800 800 801 802 803 805 806
758 768 766 764 769 765 759 763 767 767 773 787 799 796 792 797 798 802 815 821 825 828 819 810 806 802 801 788 768 763 762 757 757 757 756 756 756 756 753 751 752 752 752 753 752 752 753 753 753 754 754 755 756 758 759 760 762 764 766 768 769 771 772 773 775 777 779 781 782 783 784 785 786 787 788 789 791 793 794 795 796 797 798 800 801 803
747 766 774 768 770 769 765 770 777 776 775 778 782 780 785 802 807 804 810 816 822 824 812 806 806 801 797 784 765 761 761 755 753 755 755 754 754 753 750 750 751 750 751 750 750 751 752 752 752 752 753 754 754 756 757 758 760 761 763 764 765 767 768 770 772 773 775 776 777 778 779 780 781 783 784 785 788 790 791 791 792 794 795 796 798 800
742 759 774 772 770 771 772 777 781 784 785 780 778 779 778 787 795 795 796 798 807 813 807 804 806 795 783 774 764 759 756 750 749 751 752 751 750 749 749 749 749 748 748 748 749 750 750 751 751 750 752 752 753 755 756 757 759 759 761 762 763 765 766 768 769 770 771 772 774 775 776 778 779 780 782 783 785 787 787 788 790 791 792 794 795 796
745 751 764 774 775 771 770 771 769 773 781 781 784 787 780 781 788 789 788 789 796 805 804 804 801 782 766 761 758 754 748 744 744 746 747 746 745 747 748 747 747 747 747 748 748 749 749 749 749 750 751 752 753 754 755 756 757 758 760 760 761 763 764 765 766 767 768 770 771 773 774 775 777 779 781 782 784 784 785 786 788 789 791 792 792 793
747 747 756 772 775 767 762 758 755 758 763 765 772 775 774 778 786 792 797 792 790 795 796 799 795 772 752 749 749 747 742 740 742 743 742 741 742 745 746 745 746 746 747 748 748 749 749 749 749 750 750 751 752 753 754 754 755 756 757 758 759 760 760 761 763 764 766 768 769 771 772 773 775 777 779 780 781 782 783 784 785 787 788 789 790 791
743 746 755 766 768 765 762 758 757 758 758 758 764 766 768 774 779 788 796 791 788 790 788 794 793 765 742 741 742 741 739 738 740 740 739 740 741 743 744 744 746 746 746 748 748 749 750 749 750 750 750 750 750 751 752 752 753 753 754 755 756 757 758 760 761 763 765 766 767 768 770 771 773 774 776 777 778 779 780 781 783 784 785 786 787 788
743 746 756 767 769 767 765 762 760 760 761 765 768 767 768 769 768 772 777 780 786 787 784 795 794 763 741 740 740 738 738 737 738 738 738 740 742 743 744 744 746 746 746 747 748 749 750 750 750 750 749 749 749 749 749 750 751 752 752 754 755 756 757 759 761 762 763 764 765 766 768 769 770 771 772 774 775 776 777 779 780 781 782 783 785 786
741 744 751 763 770 771 770 768 768 769 769 768 768 768 766 763 766 770 772 778 783 777 777 790 785 758 742 740 739 739 739 736 737 738 737 739 741 743 743 744 745 745 745 747 748 749 749 749 749 749 748 748 748 748 748 749 750 751 751 753 754 755 757 758 759 761 761 763 764 764 765 766 767 769 770 771 772 773 774 776 777 778 780 781 782 783
737 740 741 744 750 753 753 750 751 757 762 760 759 762 761 757 761 764 769 779 778 768 770 777 768 753 743 738 737 739 738 736 737 738 738 738 740 741 741 742 742 743 743 744 746 747 747 748 748 748 747 747 747 747 748 749 749 749 750 751 751 753 754 755 756 758 759 760 761 762 763 765 765 766 767 768 769 771 772 773 774 775 777 778 779 780
735 739 735 730 726 725 726 726 725 732 745 752 752 753 754 753 754 758 766 772 766 764 772 767 756 752 747 740 738 739 740 738 736 738 738 738 739 739 739 740 740 740 742 742 743 744 744 745 745 746 745 745 745 746 746 747 747 747 748 748 750 751 752 753 754 755 757 758 759 761 761 763 764 765 766 766 767 769 770 771 772 773 774 775 776 777
736 739 735 730 725 720 723 726 724 728 737 743 746 750 754 756 758 761 763 758 754 768 776 761 753 757 752 745 742 738 736 735 733 736 737 735 737 737 738 739 739 740 741 741 741 741 741 742 742 743 744 743 744 744 744 745 745 746 747 747 749 750 751 753 754 754 756 757 758 759 760 761 762 763 764 765 766 767 768 769 770 771 772 773 774 775
736 739 733 732 730 726 725 725 724 728 732 733 738 745 749 752 755 757 756 749 750 762 759 746 749 752 740 737 738 731 728 730 730 733 734 733 736 737 738 738 737 738 739 739 739 739 739 739 739 740 741 741 742 742 742 743 743 744 745 746 747 749 750 752 753 754 755 755 756 757 758 759 760 761 762 763 764 765 766 767 769 770 771 772 773 774
732 736 734 734 734 731 729 726 723 726 730 733 737 739 740 744 745 744 745 742 744 749 742 735 741 736 720 722 728 724 725 729 728 730 732 733 735 735 735 735 735 736 737 736 736 736 737 738 738 739 739 739 740 740 740 741 741 742 743 743 745 747 748 750 751 752 753 753 754 755 756 757 758 759 760 761 762 763 764 766 767 768 769 770 771 773
726 731 734 737 738 735 732 728 725 724 727 732 736 736 738 742 743 743 741 740 746 748 737 733 738 730 715 716 723 723 725 728 727 729 730 731 732 732 732 732 732 733 734 733 733 734 736 736 736 737 738 737 737 737 737 738 738 739 740 741 743 744 746 748 749 750 751 751 752 753 754 755 756 757 758 759 760 761 762 764 764 766 767 768 769 770
730 732 733 737 738 733 729 728 725 722 724 730 734 736 738 740 739 738 734 732 737 738 734 739 740 726 714 715 720 721 723 725 726 728 728 728 729 730 728 727 728 730 730 730 730 732 733 733 733 734 735 734 734 734 734 735 736 737 737 738 740 742 744 745 746 747 748 749 751 752 752 753 754 755 756 757 758 759 760 762 762 763 764 765 767 768
734 734 732 733 730 724 724 726 724 726 732 731 724 720 723 724 724 725 724 721 722 724 730 735 725 709 707 714 717 718 719 721 723 723 723 725 727 726 723 721 724 725 725 726 726 727 728 728 730 731 730 730 730 731 731 732 733 734 734 735 737 739 741 742 743 745 746 747 749 749 750 752 752 754 755 756 757 758 759 760 761 762 763 764 765 766
733 731 730 727 720 718 725 728 728 731 727 712 700 697 701 706 711 717 717 715 716 719 721 718 706 700 708 712 711 715 716 716 717 717 717 718 720 720 719 719 720 721 721 723 723 723 724 725 727 727 726 727 728 728 729 730 730 731 732 734 735 736 738 739 741 743 744 746 747 748 749 750 751 752 753 754 755 756 757 758 759 761 762 763 764 765
733 730 729 727 720 719 727 731 730 724 708 693 690 694 697 701 707 713 713 712 715 716 714 708 699 700 709 710 709 711 711 710 712 712 712 713 714 714 715 716 717 717 718 719 720 720 722 722 723 723 723 724 725 726 727 727 728 729 730 731 733 734 736 738 739 741 742 744 745 746 747 748 749 750 751 753 754 754 755 756 757 759 760 761 762 763
734 730 727 725 721 720 725 726 719 710 702 697 694 697 704 710 714 719 718 709 702 701 702 701 697 700 709 708 705 709 709 710 711 710 709 711 710 710 710 710 710 712 713 714 714 715 717 717 718 719 719 721 722 723 724 725 726 727 729 730 731 733 734 736 738 739 740 741 743 744 746 747 748 749 750 751 752 752 753 754 755 756 757 759 760 761
732 732 726 722 718 714 717 716 710 709 710 704 696 693 696 695 695 703 705 694 687 694 703 702 699 701 703 699 700 708 712 714 715 710 707 708 707 706 706 702 702 705 708 709 709 710 711 712 713 715 716 718 719 720 721 723 724 725 727 729 730 731 733 734 736 737 738 739 741 743 744 746 746 747 748 749 750 751 751 752 753 754 755 757 758 759
726 729 726 721 715 712 713 711 711 712 704 694 690 684 678 677 680 691 700 694 687 693 699 695 691 692 693 695 701 708 713 717 714 704 701 705 706 704 702 697 697 702 703 704 706 706 707 709 710 712 714 715 717 718 719 721 722 723 725 726 727 729 730 731 732 734 736 737 738 740 742 744 745 746 747 748 749 750 751 752 753 754 755 756 757 758
721 726 728 724 717 714 711 704 703 701 686 676 679 678 677 682 686 700 716 705 682 679 686 685 683 683 687 694 700 706 715 717 704 691 693 700 700 697 695 693 696 700 700 701 703 704 705 707 709 710 712 713 715 716 717 718 719 720 722 723 724 726 727 728 729 731 733 735 737 739 741 744 745 746 747 749 750 751 752 753 754 754 756 757 758 759
720 723 727 725 717 713 710 702 697 691 677 669 672 675 680 683 686 711 728 698 661 665 678 675 671 673 678 689 698 703 705 697 684 680 686 689 687 687 688 689 692 696 697 699 700 702 704 706 707 709 710 712 713 714 715 717 718 719 720 722 723 725 725 727 729 731 733 735 738 740 742 744 746 748 749 750 751 752 753 754 755 756 756 758 759 760
718 720 721 718 712 710 709 703 696 686 673 668 671 673 678 684 693 710 705 666 642 656 667 663 662 667 675 687 694 691 682 674 672 677 679 680 680 682 684 687 690 693 695 697 699 701 703 705 706 708 709 711 712 713 715 716 717 718 720 721 723 724 725 727 729 731 733 735 737 739 742 744 746 747 749 750 751 752 754 754 755 756 757 758 760 761
713 715 716 713 709 708 705 702 699 686 665 660 670 673 673 683 692 684 661 642 642 651 654 655 660 665 672 679 680 673 667 667 672 674 673 675 677 678 681 686 689 692 695 696 698 700 702 704 706 708 709 711 712 713 714 715 717 718 720 721 722 724 726 727 729 731 733 735 736 738 740 742 744 746 747 748 749 751 752 753 754 755 756 758 759 761
702 706 708 705 703 704 706 705 699 681 657 653 669 675 669 666 666 655 644 645 649 648 649 653 654 656 662 665 664 662 660 664 669 670 670 674 675 677 681 685 687 691 694 695 698 699 701 703 706 708 709 710 711 712 713 715 717 718 720 721 723 724 726 727 729 730 732 734 735 737 739 740 742 743 745 746 747 749 750 751 753 754 755 757 758 760
695 696 697 695 692 694 697 692 678 664 653 651 656 660 657 651 647 644 644 647 647 646 650 652 650 652 655 655 656 657 657 661 667 669 670 673 676 678 682 684 687 690 693 694 696 698 700 702 705 707 708 709 710 712 713 714 716 718 719 721 723 724 725 727 729 730 732 733 735 736 738 739 740 742 743 745 746 747 749 750 751 752 753 755 756 758
684 682 683 684 682 679 675 668 659 656 655 649 643 643 646 647 647 645 642 641 640 642 646 647 646 648 651 652 653 654 656 660 665 666 667 670 675 679 682 684 687 689 691 693 696 697 699 701 703 706 708 709 710 711 712 714 715 717 719 721 723 724 725 727 729 731 732 734 735 737 738 739 741 742 743 745 746 747 749 750 750 752 753 754 755 756
675 675 676 676 676 674 667 660 659 660 656 649 645 646 645 644 647 646 642 639 640 642 645 645 643 642 646 649 650 652 656 659 662 664 666 669 675 681 683 685 688 689 690 693 695 697 699 701 703 706 707 708 710 710 711 713 714 716 719 721 723 725 726 727 729 731 733 734 736 737 738 739 741 742 743 744 746 747 748 749 749 750 752 753 754 755
675 675 674 673 675 675 666 655 653 657 655 650 649 648 645 644 647 647 643 641 641 643 645 645 644 645 647 648 648 650 655 657 660 665 668 670 674 679 682 684 687 689 690 692 694 696 698 700 703 705 706 707 708 709 710 712 713 715 717 719 722 724 725 727 728 730 732 734 735 737 738 739 740 741 742 743 744 745 746 747 747 748 749 750 752 753
673 673 673 673 673 670 659 649 650 654 653 649 648 648 647 646 647 646 647 647 644 644 645 646 647 647 645 645 645 648 653 657 658 662 667 671 674 678 681 684 686 688 691 693 695 696 698 699 701 703 704 706 708 709 710 711 713 714 715 716 719 721 723 725 727 728 730 732 734 735 737 738 739 740 741 742 743 744 744 745 746 747 748 749 750 751
669 672 670 669 672 668 657 650 653 656 652 648 649 650 650 649 647 647 649 649 645 643 644 646 648 648 645 645 644 646 651 656 657 658 664 669 673 676 680 683 685 689 691 694 696 696 696 698 699 702 704 706 708 709 711 712 713 714 714 715 717 718 720 722 724 726 728 729 731 733 735 736 738 739 740 741 742 744 745 745 746 747 748 749 750 751
666 669 666 667 671 666 653 646 650 654 652 649 649 648 646 646 646 645 646 646 644 642 643 645 648 649 648 647 646 645 648 654 658 660 663 667 670 674 678 681 685 689 691 692 694 695 696 697 699 701 704 706 708 709 711 712 714 715 715 715 715 716 718 720 721 724 726 727 729 731 733 735 737 738 740 741 742 743 744 745 747 748 749 749 751 751
654 655 658 662 660 651 643 643 647 649 649 647 645 643 641 642 644 642 640 639 638 640 643 645 644 645 646 648 649 647 646 652 657 659 662 667 671 673 677 680 682 685 688 689 691 693 696 698 700 701 703 706 707 709 710 711 713 714 714 714 715 715 716 717 718 721 724 726 728 730 732 734 736 738 739 741 742 743 744 745 747 748 749 750 751 752
Wind_Speed
6 5 6 9 11 11 10 10 7 4 7 7 6 6 6 5 5 6 6 6 6 6 7 9 9 12 11 8 9 10 8 8 9 8 8 8 7 7 9 10 10 11 12 18 24 26 28 30 31 31 32 34 34 36 37 38 37 35 34 34 35 35 34 34 34 33 33 33 31 31 31 31 30 30 29 27 27 27 27 26 25 25 24 23 24 25
7 7 11 13 12 12 12 11 9 7 6 6 6 5 6 6 5 5 5 6 6 5 6 7 7 11 13 10 9 8 8 10 11 10 10 11 10 8 9 12 12 10 10 12 17 23 28 30 31 31 32 33 34 36 38 39 38 36 35 36 37 36 36 35 35 35 36 36 36 35 35 34 33 33 32 31 30 29 28 27 27 27 27 27 26 25
7 10 15 14 12 13 12 11 11 10 7 3 4 5 5 5 3 3 1 2 4 3 4 4 5 10 12 10 10 9 10 12 12 12 12 12 11 10 10 12 11 10 9 9 12 19 27 30 32 31 31 34 36 36 36 37 37 37 36 38 39 38 38 37 36 36 36 37 36 34 33 34 33 33 33 33 32 31 30 29 29 29 30 29 28 27
9 14 16 14 11 13 13 11 11 8 7 4 3 4 4 4 3 2 1 1 2 3 2 2 3 7 9 10 10 12 13 13 13 14 14 12 12 13 13 11 11 12 12 11 11 14 23 28 30 31 32 35 36 34 34 35 37 38 39 39 39 40 40 39 38 37 35 34 34 32 30 30 31 31 32 32 32 32 32 31 32 33 32 31 31 30
14 12 13 15 13 14 13 11 12 8 6 7 5 5 3 4 5 3 3 4 0 2 1 1 4 5 7 9 11 10 10 13 14 13 13 12 11 11 11 11 13 14 14 13 13 12 17 23 28 33 35 35 35 35 36 38 39 41 41 40 38 38 39 40 39 38 35 32 31 31 28 27 28 29 30 32 33 34 35 35 35 35 34 33 33 32
14 8 13 16 14 14 13 12 14 11 7 7 8 8 6 6 5 3 5 4 2 4 3 2 2 6 5 7 9 6 4 9 11 11 13 13 12 10 10 11 12 13 13 13 14 13 16 23 28 31 33 33 34 37 39 41 42 42 41 39 38 37 38 39 39 38 35 33 32 32 30 29 29 29 31 35 36 37 38 38 37 36 35 35 35 34
6 10 15 15 14 15 13 12 14 13 8 6 8 10 9 7 5 5 6 3 1 3 3 4 3 5 5 7 9 7 6 8 9 9 12 12 12 12 11 12 12 12 12 11 12 13 16 21 24 27 31 34 36 40 42 41 42 40 39 39 39 38 38 39 39 38 37 36 34 34 34 34 33 32 33 36 36 36 38 38 37 37 36 35 35 36
9 14 14 15 16 15 12 11 14 15 10 6 7 11 10 9 5 4 6 3 2 1 3 2 3 3 6 7 9 9 9 11 10 10 12 12 13 14 14 14 13 14 13 12 12 12 15 20 24 27 33 38 41 41 41 40 41 41 40 40 40 39 38 39 40 40 40 39 37 36 36 35 35 35 34 34 34 34 35 36 37 38 37 37 36 36
14 18 18 19 16 12 12 11 12 15 10 4 8 12 10 7 2 2 2 2 1 1 4 3 2 2 7 6 5 6 8 10 12 12 12 12 15 16 16 16 15 14 13 12 13 13 15 21 27 31 35 39 42 41 40 42 42 42 42 41 40 41 40 39 40 41 42 41 39 37 37 36 36 35 34 32 33 34 34 35 37 38 39 39 39 38
10 16 19 20 14 11 12 9 12 16 9 3 8 9 5 4 3 3 1 3 2 1 5 5 4 3 6 5 3 2 4 9 11 11 11 13 14 15 15 15 15 13 10 11 13 13 17 25 31 35 36 38 40 41 41 42 40 40 41 41 41 42 42 41 40 41 42 42 40 39 38 38 37 36 33 31 31 33 34 35 37 38 39 40 40 40
5 9 11 12 11 10 9 9 11 15 10 6 7 6 6 4 4 3 1 4 1 6 5 8 8 4 5 4 4 4 5 9 9 8 9 11 12 12 12 13 13 12 10 10 11 12 18 26 31 33 33 35 38 38 38 38 38 39 40 40 41 43 42 41 41 41 41 42 42 42 40 40 40 37 34 32 32 33 34 36 37 38 39 40 40 40
5 8 6 5 7 9 11 8 6 8 9 8 6 6 6 2 3 2 3 3 4 8 4 7 8 7 7 6 3 5 6 6 8 8 11 12 11 9 10 11 12 11 10 11 10 10 13 18 22 26 28 32 33 33 34 37 38 38 38 39 40 41 41 42 41 41 42 42 43 44 43 42 41 39 37 36 36 36 37 38 38 37 38 38 39 39
5 8 7 3 3 10 14 9 3 4 4 4 6 8 7 3 2 3 2 2 5 5 1 5 6 5 9 7 5 11 12 11 10 9 10 11 10 9 8 9 9 8 9 9 10 10 10 10 14 20 24 28 29 31 35 38 38 37 38 39 39 41 42 41 41 42 42 43 44 46 44 42 41 39 39 39 38 38 38 38 38 37 37 38 38 39
5 6 10 8 3 8 14 11 5 5 6 8 9 11 9 6 5 7 4 1 4 3 1 4 4 3 7 4 9 16 17 15 12 10 9 8 8 9 7 7 7 7 8 8 8 9 9 10 13 19 23 26 27 31 35 36 37 37 37 37 39 42 42 40 40 41 42 44 45 45 43 42 40 39 39 39 38 38 37 37 37 38 39 39 40 41
11 7 12 15 9 11 15 16 16 13 12 13 9 8 9 6 5 7 5 4 4 2 2 3 3 4 4 3 8 11 12 12 10 9 9 8 8 8 7 6 6 5 6 6 7 8 8 10 15 18 21 24 27 29 31 32 33 34 35 37 39 41 40 38 39 40 41 43 43 42 41 41 40 39 38 38 38 37 37 37 37 38 39 39 40 41
10 4 9 13 9 16 18 14 15 13 9 7 2 4 6 5 5 3 3 5 5 2 2 3 3 4 4 7 10 8 9 9 8 8 7 8 10 8 7 8 6 5 5 5 6 7 8 11 15 18 20 23 26 27 28 29 31 32 34 35 37 39 38 36 38 39 40 41 39 39 40 40 40 38 38 38 38 38 38 38 38 39 39 39 39 39
8 4 10 12 8 18 21 13 14 13 8 5 3 5 4 2 5 4 0 1 5 1 3 4 6 4 2 9 12 10 14 11 7 7 6 8 8 6 8 8 7 6 6 6 6 7 7 9 14 18 20 22 24 25 27 29 32 34 35 34 35 36 35 35 38 40 40 39 37 37 39 39 40 40 40 39 39 39 38 38 38 39 39 39 38 38
6 3 8 11 11 16 15 13 14 9 6 7 7 7 3 3 3 3 1 1 3 4 4 5 9 5 1 6 6 6 13 12 9 8 7 8 6 6 9 9 7 7 6 7 7 7 7 8 11 15 17 19 22 24 27 29 32 34 35 35 35 36 36 37 38 39 40 39 38 39 39 39 41 41 42 41 40 38 37 37 38 38 38 38 38 38
5 4 1 4 7 7 4 8 10 3 1 3 7 10 7 2 2 4 4 3 4 6 5 4 8 5 6 7 4 4 8 9 9 8 8 9 8 8 9 9 8 7 6 7 7 6 6 7 11 14 15 17 19 21 24 26 28 30 33 35 36 37 37 37 37 37 38 39 39 40 40 40 40 40 40 40 39 37 36 37 38 37 37 37 37 37
4 5 2 2 3 6 5 6 10 6 4 2 5 8 6 4 5 6 6 3 5 7 6 3 2 4 7 7 6 9 11 10 9 7 7 9 9 9 9 7 7 6 6 6 6 6 6 7 12 14 15 16 17 18 19 20 22 25 28 30 32 33 33 33 34 34 36 37 38 38 38 38 39 38 38 37 37 37 37 37 37 37 37 36 36 37
3 4 4 1 1 5 7 8 13 14 7 5 7 9 8 4 2 3 4 3 3 4 4 3 3 6 5 5 11 14 14 14 10 7 8 9 9 9 8 7 7 6 6 5 5 6 6 7 10 10 10 11 12 13 14 15 17 19 22 24 26 28 29 30 32 32 33 34 34 34 35 36 36 36 36 35 35 36 37 36 36 36 35 35 35 36
3 3 6 5 3 6 9 9 13 16 14 11 10 11 11 7 4 4 5 3 2 2 3 3 6 7 5 5 9 12 13 12 8 8 8 8 8 8 6 7 7 6 6 6 6 6 5 6 7 8 8 9 10 11 12 13 15 17 20 22 23 25 26 28 28 28 29 29 30 31 32 33 33 33 33 34 34 35 35 35 35 34 34 35 35 35
2 2 5 5 4 4 3 2 4 7 11 7 3 7 10 7 6 7 8 5 4 5 4 3 6 7 4 6 9 10 11 8 7 9 7 6 7 7 6 7 6 5 6 6 5 5 5 6 7 8 8 9 10 12 13 15 17 18 20 20 21 23 24 25 24 24 25 26 27 28 29 29 29 29 30 31 32 33 33 34 34 33 34 34 34 34
2 2 5 3 1 2 2 2 5 3 6 4 1 3 8 9 10 8 6 5 5 8 7 4 7 7 3 3 5 7 8 6 6 8 7 6 6 6 7 7 6 6 6 5 5 5 4 5 6 7 9 11 12 14 15 16 17 18 19 19 19 20 20 20 20 21 21 22 22 23 24 25 25 25 25 26 28 29 29 30 31 31 31 31 32 32
2 3 6 5 3 1 1 2 2 2 4 5 4 6 9 13 12 5 3 3 5 11 11 7 9 7 3 2 3 2 2 5 5 5 8 7 6 6 6 6 6 6 6 5 5 5 4 5 6 7 10 13 14 15 15 15 15 15 16 17 17 17 17 17 17 18 19 19 19 19 20 21 22 22 23 23 24 25 25 26 27 27 27 27 29 30
5 5 7 8 9 8 9 10 10 9 8 6 9 14 16 19 19 11 7 6 8 11 12 10 10 5 2 4 4 5 1 4 4 3 4 5 6 7 6 6 7 6 6 7 6 5 5 5 6 8 11 13 14 14 14 13 13 12 12 13 14 14 15 15 16 18 19 19 19 19 20 21 21 22 23 23 23 22 22 22 23 24 25 26 28 30
3 4 9 11 10 11 9 7 8 13 13 11 14 20 19 19 19 14 8 9 11 8 6 9 12 8 5 5 5 5 3 5 6 5 4 4 6 7 6 6 6 5 6 6 5 5 5 5 6 7 10 13 13 13 13 13 12 12 13 14 14 14 16 16 16 18 19 20 20 20 21 21 21 22 22 23 23 23 23 22 22 23 24 24 25 28
4 6 13 14 12 8 4 5 7 13 16 18 19 19 17 14 14 13 11 13 10 4 4 10 11 11 11 7 7 9 8 8 8 6 6 6 7 6 5 5 6 6 6 5 5 6 6 6 6 6 9 13 13 13 13 13 13 13 14 14 14 15 16 17 16 16 17 18 18 19 20 20 20 20 21 22 22 22 24 24 25 25 26 26 28 30
3 6 11 14 14 8 4 8 13 14 16 19 20 20 21 19 19 19 18 18 13 8 13 17 14 15 18 14 14 14 12 10 8 7 7 6 5 5 5 6 8 8 7 7 7 7 7 7 6 6 9 12 13 14 14 14 14 15 15 15 15 15 16 17 18 17 17 17 17 17 17 17 17 17 17 19 20 21 21 22 22 23 24 26 28 29
3 5 8 12 14 10 5 8 14 16 15 15 17 20 22 23 24 24 23 23 19 15 19 20 19 22 22 15 15 16 11 8 7 6 6 6 6 7 8 9 9 9 8 9 9 8 7 7 7 6 8 10 13 15 16 16 16 17 17 17 18 18 17 18 19 19 19 19 19 18 17 16 16 17 17 18 19 20 20 21 22 23 24 25 26 27
3 6 9 10 10 9 7 8 13 16 16 16 17 18 19 20 20 21 21 19 17 17 22 22 20 21 14 6 8 10 8 8 9 9 7 7 8 9 9 10 10 10 10 10 9 8 7 7 7 6 7 11 15 16 16 16 16 17 18 18 19 20 19 19 20 20 20 20 19 18 17 16 15 15 17 18 18 18 18 18 19 20 22 23 24 25
2 4 8 8 6 7 9 11 14 16 16 17 17 18 19 19 19 19 20 19 18 21 24 20 17 18 10 6 8 8 9 11 12 11 9 9 9 10 11 12 12 11 11 11 9 8 8 9 8 7 9 14 17 17 17 16 16 17 19 19 20 20 20 21 20 20 19 18 16 15 14 14 13 12 12 13 15 16 17 17 16 16 16 18 18 19
4 3 4 7 7 8 10 13 13 12 11 12 16 22 25 25 24 22 21 22 23 21 18 15 18 17 7 8 11 11 10 12 12 11 10 9 10 11 13 13 12 12 12 11 10 10 10 9 9 11 14 16 18 18 17 16 17 18 18 18 18 20 22 22 21 20 18 17 15 14 14 13 13 12 12 11 11 13 14 15 16 15 15 15 15 16
6 6 4 5 6 6 10 11 8 8 11 12 15 24 29 29 28 25 23 23 21 17 13 14 20 16 7 9 14 12 10 10 10 11 11 10 11 12 13 12 11 11 11 10 10 10 9 8 10 15 19 19 18 17 15 15 16 15 14 15 17 20 22 23 22 21 19 18 17 16 15 14 14 13 13 13 13 12 13 14 15 15 15 15 15 16
4 5 4 3 3 3 7 9 7 9 11 7 6 16 22 22 23 22 21 21 20 19 20 23 25 18 7 6 9 9 10 11 10 11 12 11 11 11 11 12 11 11 11 10 10 9 8 8 11 16 20 20 18 16 14 15 16 14 14 16 18 20 22 22 22 21 20 19 18 17 16 16 15 14 14 14 14 14 14 15 15 16 17 17 17 17
4 4 3 2 2 3 5 8 8 5 3 1 6 12 12 11 14 16 18 22 26 26 25 25 26 17 8 9 10 8 8 7 6 8 10 10 11 11 10 11 12 12 12 10 10 10 10 13 16 18 20 21 19 17 16 16 16 15 15 16 17 20 21 21 21 21 21 21 20 19 18 17 16 16 15 15 15 15 15 15 15 15 16 16 17 18
5 3 2 2 4 3 4 8 5 2 3 2 6 10 14 17 20 19 18 21 22 20 17 19 23 20 16 18 15 6 3 0 4 8 9 10 11 11 11 14 13 11 11 11 13 15 16 19 20 20 20 20 19 19 18 16 16 16 16 16 18 19 20 20 21 21 22 21 20 19 18 18 17 17 16 16 16 16 15 14 13 14 14 15 16 17
8 5 3 3 3 1 3 6 4 2 5 9 9 12 19 22 18 14 12 13 11 15 18 22 26 25 21 20 13 6 5 2 9 10 9 10 11 11 15 18 12 9 12 14 16 17 18 18 18 18 18 18 18 18 18 17 17 17 17 18 19 20 20 21 21 21 21 22 21 19 18 18 18 17 17 17 16 15 14 13 13 12 12 13 13 14
9 6 3 2 2 1 3 6 6 6 9 10 11 14 17 13 10 10 5 12 13 18 22 24 26 25 21 18 12 8 7 9 14 11 9 11 14 15 18 17 10 8 12 15 15 16 16 13 13 13 14 15 17 17 18 18 19 19 19 19 20 20 20 22 22 21 21 21 20 18 17 16 16 16 15 15 13 12 11 11 10 10 10 10 10 10
8 5 4 4 4 3 4 5 4 5 7 6 10 13 12 13 16 13 7 17 17 18 20 23 28 27 20 14 10 9 12 16 14 9 12 16 18 18 17 14 11 10 11 13 13 13 14 14 13 13 14 16 17 17 18 18 18 19 18 18 18 19 20 21 20 18 18 18 17 16 15 14 14 13 12 11 10 9 8 8 7 7 7 8 9 8
3 3 3 5 6 5 6 5 3 4 6 5 9 12 15 16 13 12 15 15 10 15 18 21 24 22 15 12 10 11 17 17 9 8 14 17 17 16 12 9 8 8 10 13 13 12 14 13 12 12 12 12 14 14 15 16 16 16 16 16 17 18 17 16 15 15 15 16 16 16 14 13 12 10 9 9 8 7 7 6 5 5 5 6 6 6
3 2 3 5 6 4 4 4 3 5 6 7 9 13 17 14 9 13 12 4 6 13 18 19 19 16 14 15 15 16 19 16 11 12 14 15 15 13 9 7 7 5 7 10 12 13 15 13 10 10 9 8 10 11 11 13 14 13 14 15 15 14 11 10 12 13 14 15 15 15 14 13 13 11 10 10 8 8 7 6 5 4 4 4 4 4
4 3 2 4 4 2 2 3 4 7 6 11 14 11 12 11 8 6 3 1 3 9 12 14 16 15 16 18 20 21 21 17 13 13 12 12 12 9 8 8 8 8 9 10 11 13 15 14 12 11 10 8 9 9 9 12 12 12 13 12 10 8 7 9 12 14 15 15 16 15 14 14 14 13 11 10 9 9 8 7 6 5 5 5 4 4
5 5 3 4 5 4 4 7 6 5 4 15 16 12 12 9 5 5 5 3 4 5 6 8 11 12 14 16 18 20 19 14 10 10 10 10 9 8 8 8 8 9 9 10 13 15 16 16 14 12 10 8 8 9 10 12 13 13 12 11 10 10 10 12 14 15 16 16 16 16 15 14 13 12 11 10 9 9 8 8 7 7 7 6 6 5
7 8 4 2 4 6 7 7 5 2 4 10 11 9 12 11 5 5 7 5 4 5 6 7 9 10 12 14 16 16 14 10 9 10 11 10 8 8 8 7 8 10 11 13 15 15 16 17 16 14 12 9 8 9 10 11 13 14 13 11 11 12 13 15 16 16 16 16 16 15 14 13 12 10 9 9 8 9 9 9 9 9 8 7 7 6
5 5 3 1 3 6 8 10 8 4 5 7 6 3 7 10 6 3 5 4 5 5 5 6 8 10 11 13 13 11 9 10 11 11 10 10 8 8 8 7 8 10 13 14 15 16 18 18 17 16 14 12 10 11 12 12 14 15 14 13 13 13 14 17 18 17 16 16 15 14 14 13 12 11 11 10 9 9 9 9 10 9 9 8 7 7
2 4 5 4 3 5 9 14 14 11 8 7 7 7 6 5 3 2 4 4 5 6 6 6 7 7 8 10 11 10 8 10 12 9 7 8 9 8 8 8 8 9 12 14 17 19 20 19 17 17 16 14 13 14 15 15 16 17 17 16 15 15 16 18 19 19 18 17 16 15 14 14 15 14 13 13 12 11 11 10 10 10 9 9 8 8
4 5 6 5 6 7 10 10 6 7 10 9 8 7 6 5 4 2 2 3 3 4 3 3 3 5 8 9 10 11 10 10 12 11 8 8 8 8 8 9 8 9 12 16 19 20 19 18 19 19 17 15 15 16 18 18 18 18 18 18 18 18 19 20 21 21 20 19 18 17 16 16 17 17 16 14 13 13 12 11 11 10 9 8 8 8
5 5 6 6 6 10 14 12 6 5 8 10 8 6 5 5 5 4 5 3 2 3 0 2 2 4 7 8 9 11 11 10 11 13 11 9 8 8 8 8 9 13 16 18 19 19 18 19 21 21 19 17 18 18 19 19 19 19 19 19 19 21 22 23 23 22 22 21 20 19 18 18 18 18 18 17 15 13 11 10 9 9 9 8 7 6
6 6 6 5 6 11 13 10 7 6 6 6 6 8 8 7 6 5 3 3 3 5 4 2 1 2 2 4 7 11 12 9 9 11 11 10 9 10 10 10 11 15 19 19 18 18 19 20 23 24 22 20 20 21 21 20 20 20 19 19 20 22 25 26 26 24 23 22 22 21 20 20 19 18 17 17 16 15 13 11 8 7 6 6 5 4
8 10 9 7 10 13 8 3 5 6 6 5 7 10 10 7 7 7 8 8 9 8 8 7 5 3 3 2 3 7 11 11 10 11 11 8 8 10 13 13 13 15 18 21 20 19 19 21 24 25 23 21 22 23 22 22 21 21 20 20 21 23 26 28 28 26 24 23 23 22 21 20 19 18 16 15 14 15 15 13 10 7 5 4 3 3
Wind_Direction
163 153 182 198 193 189 190 197 202 181 171 174 178 197 208 208 230 218 214 228 170 156 221 215 223 250 252 240 239 249 248 243 242 236 236 236 225 212 208 211 207 204 212 212 207 206 206 206 205 204 203 203 204 205 206 206 207 207 205 205 206 208 208 209 209 207 204 202 204 207 209 211 212 215 216 217 216 215 216 216 217 218 220 222 221 219
169 184 204 202 186 178 185 191 195 207 206 181 177 197 211 212 238 234 208 213 179 167 237 223 220 250 254 248 242 240 244 249 244 238 238 236 232 220 209 212 211 212 216 209 203 202 203 205 204 204 202 201 202 204 204 205 206 207 207 208 208 207 206 209 210 208 206 205 204 205 207 209 210 213 214 215 216 215 215 215 216 217 218 221 221 221
180 207 209 195 174 173 185 190 187 206 223 201 170 179 208 223 246 298 6 164 175 187 246 235 223 252 259 257 253 243 240 245 242 239 237 232 233 229 217 214 212 214 216 206 202 199 199 202 202 202 202 202 204 205 205 206 206 207 209 211 211 208 207 209 210 211 211 210 208 208 209 209 210 213 216 218 218 215 214 214 215 216 218 220 220 221
192 214 201 176 165 173 181 189 186 199 220 214 166 165 211 222 206 259 17 124 194 200 219 254 253 263 269 269 261 244 236 243 242 238 237 229 226 228 222 215 207 210 213 209 206 199 198 200 199 200 202 203 205 205 206 207 208 209 211 212 213 211 210 211 212 213 213 213 213 213 214 213 213 216 219 221 221 217 214 213 215 216 218 219 220 220
205 207 175 163 169 172 173 184 187 191 214 216 197 182 201 216 214 217 169 156 245 313 303 320 307 279 253 255 259 249 235 242 243 237 240 235 228 232 229 220 212 208 208 206 207 201 196 197 198 200 202 203 204 205 207 208 209 211 212 213 213 213 213 213 214 213 213 213 214 214 216 217 217 218 217 217 218 216 213 213 214 215 217 219 220 220
212 175 153 170 173 169 174 184 189 189 198 218 213 200 192 212 229 187 146 135 55 319 266 165 286 283 264 257 260 266 245 240 245 238 238 239 234 235 234 227 222 216 211 206 205 199 195 198 199 201 202 202 204 207 208 210 211 212 212 213 214 214 214 214 215 213 212 213 212 211 210 211 211 213 214 213 214 214 213 213 213 213 216 218 220 220
202 166 164 173 170 174 184 189 191 185 187 217 203 185 191 214 222 156 151 161 155 268 260 159 198 272 297 283 264 272 272 252 251 243 236 238 235 230 231 230 226 223 219 213 208 199 196 198 197 199 201 202 205 209 210 211 212 212 213 213 213 214 214 214 214 213 212 212 212 211 211 211 211 211 214 216 216 215 215 215 215 215 217 218 220 221
161 169 171 169 172 182 191 194 189 180 190 219 164 164 192 210 214 174 163 192 203 273 310 209 178 270 279 270 260 256 261 264 260 247 238 235 233 231 231 229 225 222 216 211 209 201 197 198 198 200 202 204 208 210 210 211 212 213 213 213 213 214 214 213 213 212 212 212 212 213 214 215 215 215 217 218 217 217 217 217 217 218 220 220 222 223
164 173 174 173 178 190 194 190 177 174 194 219 157 168 191 186 202 280 182 174 68 33 288 242 145 276 263 261 275 248 239 257 257 246 241 234 231 231 231 231 227 223 216 207 205 202 200 199 201 204 205 207 210 210 210 211 212 213 213 214 214 214 215 214 213 212 212 213 212 213 215 217 219 220 220 220 218 218 217 219 220 221 222 223 224 225
173 181 176 173 181 191 187 168 161 175 196 199 154 152 139 113 61 7 165 127 64 291 240 207 167 253 264 241 251 249 222 241 247 244 239 234 231 228 229 233 230 224 217 210 207 203 203 203 204 207 208 210 211 211 211 212 212 212 213 213 214 216 216 215 214 213 213 213 213 214 215 217 220 220 220 221 220 219 218 220 221 222 222 223 224 225
159 171 166 174 187 180 162 153 165 176 171 131 121 107 83 56 43 34 33 88 91 258 220 178 173 199 272 251 204 215 224 226 231 242 247 244 240 231 228 232 231 224 215 210 210 207 207 208 208 208 210 212 213 212 212 212 212 212 212 212 214 216 217 216 215 214 214 214 214 216 216 217 219 219 218 218 219 218 217 219 220 221 221 222 223 224
146 151 152 184 190 155 143 154 157 154 151 133 124 124 116 62 19 25 2 69 213 250 221 174 163 169 238 261 232 242 258 241 225 228 240 244 241 233 227 231 231 223 214 208 209 210 209 211 212 211 212 214 214 211 211 212 212 213 213 212 214 216 217 216 216 215 215 215 216 218 219 219 219 218 217 217 218 217 217 218 219 219 220 221 221 222
164 168 163 162 182 157 154 157 96 99 155 151 137 146 148 157 189 198 218 185 216 252 239 161 146 179 240 257 256 259 264 254 235 227 236 241 242 244 235 235 236 223 214 211 209 211 209 209 210 210 213 215 213 211 211 212 212 212 213 212 213 216 217 216 215 215 216 216 218 219 219 221 221 220 220 220 220 220 219 219 218 218 218 219 219 220
177 193 172 160 170 176 167 161 154 153 177 186 169 168 174 166 182 201 196 213 232 241 209 143 130 253 271 265 234 243 253 254 248 240 240 240 240 248 243 237 239 223 211 211 214 218 214 213 213 210 211 214 214 213 213 212 211 210 212 212 214 218 218 216 215 216 217 218 220 221 220 222 223 223 223 224 224 223 222 221 220 219 219 219 219 220
179 196 177 174 171 176 181 179 177 169 177 194 182 171 184 173 182 194 181 203 220 225 219 165 144 210 226 249 235 234 251 263 262 247 241 245 243 247 259 260 253 237 222 210 210 219 219 218 217 215 213 213 214 216 216 214 212 211 211 212 215 219 219 216 217 217 218 220 222 222 222 223 224 225 226 226 227 226 225 224 222 222 221 221 222 223
190 218 174 176 164 169 184 189 172 156 170 203 162 157 199 183 163 162 170 188 160 109 217 203 232 215 201 279 281 264 262 262 264 262 253 253 255 255 263 262 254 246 247 229 204 208 217 215 213 213 215 215 216 216 215 215 213 212 213 214 216 220 221 219 218 219 220 222 223 223 224 225 225 226 227 228 229 228 227 226 225 225 225 225 226 226
196 220 174 171 165 177 184 183 171 164 166 178 165 181 195 114 123 122 277 108 103 183 229 193 246 280 313 284 280 270 267 265 265 274 264 251 260 264 257 256 251 240 238 229 209 204 207 204 204 206 208 210 211 212 213 215 215 215 215 216 217 221 221 221 221 221 222 223 223 224 225 226 226 226 227 228 229 229 229 228 228 229 229 229 229 229
175 172 181 175 177 188 184 171 177 178 148 156 182 179 130 47 77 100 200 54 97 231 247 201 228 249 204 257 277 262 258 263 260 257 256 256 261 262 254 253 252 242 231 227 223 221 219 210 207 206 206 206 206 208 212 215 217 217 218 218 218 220 221 221 222 222 222 223 223 224 225 226 226 227 228 229 229 230 229 228 228 228 229 230 230 230
167 130 244 202 180 178 145 155 179 221 330 178 178 166 148 167 191 158 186 200 189 222 260 234 225 224 203 223 275 262 240 252 255 243 243 248 243 242 250 254 257 254 244 237 233 233 234 225 220 216 215 214 212 212 214 215 216 216 218 220 220 222 223 223 223 222 223 223 224 225 226 226 227 228 229 229 229 229 229 229 229 228 229 230 230 230
184 150 180 235 182 154 138 171 184 200 297 352 137 163 174 183 184 181 183 175 182 215 249 264 231 240 226 204 211 238 245 246 241 227 228 235 231 232 240 246 250 244 232 228 221 222 222 220 221 221 223 225 224 224 223 223 222 220 220 221 222 225 226 225 224 224 224 225 225 227 229 229 230 229 230 230 230 230 230 231 230 228 229 230 229 229
184 172 177 175 314 170 172 193 189 180 174 152 160 182 191 178 143 176 188 154 143 189 234 263 263 255 248 199 193 214 236 241 228 204 215 229 231 233 234 230 227 221 219 218 207 207 210 209 208 208 216 220 220 222 223 224 227 227 227 227 226 228 228 227 227 226 226 227 228 229 231 232 233 232 232 233 233 233 233 233 232 230 230 230 229 228
184 192 174 161 198 197 187 193 192 185 178 173 178 186 185 172 139 166 207 185 131 182 195 216 258 258 238 201 196 206 226 233 210 186 205 225 228 224 219 212 204 199 208 213 207 206 206 200 190 185 192 198 202 209 212 215 219 222 224 226 227 228 229 230 229 229 230 232 232 234 236 237 237 236 236 235 235 235 235 235 233 232 231 230 229 228
141 122 150 157 184 197 196 165 143 177 190 188 186 181 178 171 156 178 206 191 179 218 197 185 259 268 231 195 198 210 225 222 196 190 197 211 210 194 196 209 209 209 217 218 215 212 211 206 197 194 198 201 208 214 218 222 223 223 223 223 224 226 228 230 230 231 232 233 235 237 238 239 238 237 236 235 235 236 236 235 234 232 231 230 229 228
69 108 143 133 99 19 345 28 53 69 191 200 314 184 178 185 183 186 195 165 178 212 203 210 248 258 260 216 205 218 225 210 197 191 171 174 194 188 194 208 211 219 226 231 233 233 227 212 200 202 207 211 217 221 225 229 229 228 228 227 227 230 231 231 231 230 230 230 232 232 232 232 230 229 229 229 231 232 232 232 231 230 230 229 228 228
187 181 152 139 148 67 18 165 79 53 180 188 202 196 193 193 185 171 154 149 204 212 196 208 237 238 262 321 10 18 195 178 184 180 157 161 189 201 204 208 210 215 219 225 234 235 224 211 202 208 214 215 221 226 230 235 236 235 233 229 228 231 232 233 231 228 228 227 226 224 222 221 219 219 220 221 223 225 226 227 227 228 229 228 228 228
181 186 173 169 176 180 186 189 181 172 178 191 192 191 196 194 186 183 184 188 217 213 193 206 233 243 310 314 340 3 338 198 207 202 172 173 192 202 206 211 215 216 213 214 217 214 212 217 220 222 221 220 221 224 226 230 232 231 225 218 216 218 219 221 220 220 223 223 222 222 220 220 219 219 219 220 221 221 222 223 224 226 227 228 229 229
143 194 207 205 202 195 191 193 175 166 170 184 191 192 197 198 191 189 193 203 214 206 189 220 236 247 261 255 270 294 273 235 225 201 192 201 206 211 213 217 223 224 220 221 224 224 226 231 231 227 224 221 220 220 220 221 220 214 207 205 205 207 208 208 209 211 215 219 222 224 226 227 228 229 229 230 230 230 229 229 229 228 229 230 231 230
121 200 214 220 228 219 145 108 141 163 176 185 189 191 193 193 190 194 208 214 210 198 236 236 234 245 247 233 247 261 246 235 227 202 203 211 203 206 214 223 233 238 239 245 246 238 235 236 235 229 223 218 215 215 215 216 216 211 208 208 207 208 208 207 207 207 209 215 218 223 228 230 233 236 238 238 238 239 238 237 237 237 237 238 238 237
138 209 209 213 229 230 153 142 158 172 187 190 186 185 186 185 188 197 211 215 202 198 231 228 213 229 237 221 216 228 227 225 220 201 206 205 185 188 202 214 224 224 227 236 238 233 229 234 237 227 220 215 210 211 212 211 213 212 212 212 210 211 210 208 209 209 209 211 214 218 225 230 231 231 233 234 235 236 236 236 237 239 240 241 241 242
163 210 201 205 223 229 210 176 171 175 188 193 190 188 187 187 190 197 207 213 208 210 231 231 221 229 235 216 206 220 226 228 231 217 202 188 182 193 199 209 218 216 217 223 226 225 223 225 226 219 217 213 208 209 210 210 211 211 212 212 210 211 211 209 210 211 212 213 215 218 222 225 225 223 222 224 227 230 232 233 235 237 238 240 241 243
193 198 185 193 216 224 216 199 184 179 184 189 193 194 191 190 197 203 208 212 211 219 233 236 235 240 239 175 174 211 214 216 232 231 211 198 198 197 198 212 218 214 217 223 223 223 223 222 220 210 209 213 211 210 211 213 214 214 215 214 212 211 211 210 211 213 217 219 220 220 221 222 225 226 223 221 222 224 227 229 231 232 232 234 236 238
211 191 176 180 203 213 203 198 191 186 187 191 193 193 192 193 200 206 210 208 202 212 225 231 240 247 235 156 168 195 190 201 215 214 207 206 200 193 201 215 216 212 216 221 221 221 220 219 213 202 208 214 213 212 215 216 214 215 217 217 215 212 211 211 213 216 219 222 220 218 217 217 219 222 221 219 220 222 222 225 227 229 231 231 233 234
175 175 175 176 196 209 197 192 187 179 188 201 197 192 191 196 201 204 210 212 205 207 215 219 231 238 205 166 202 207 191 199 207 202 201 201 197 201 210 214 211 211 214 215 216 215 213 213 207 205 212 215 214 216 219 217 215 219 221 219 216 212 210 212 214 215 217 217 215 212 210 209 209 211 212 211 212 214 214 219 223 227 232 235 236 239
177 179 179 177 201 202 178 175 173 176 199 213 204 195 193 195 198 202 210 214 210 212 219 227 236 233 178 177 212 211 198 201 200 201 201 192 193 207 218 219 213 213 214 214 217 217 212 212 213 215 218 221 221 222 221 219 221 226 226 219 214 212 211 211 212 212 214 215 213 210 206 204 205 206 208 209 209 208 208 211 216 220 225 230 235 239
199 186 178 180 207 179 152 158 176 201 217 221 183 191 197 198 198 205 217 218 211 213 221 230 237 230 193 197 212 200 207 209 198 203 206 196 194 201 214 222 219 216 217 215 216 218 210 207 213 218 221 224 224 221 217 218 221 222 220 214 211 210 209 209 209 210 212 214 213 210 206 204 203 203 205 207 208 210 210 211 215 217 220 224 227 230
227 209 192 176 177 147 151 175 192 215 255 44 130 166 181 194 199 206 224 225 215 211 215 226 236 232 212 224 220 198 209 218 215 223 214 202 203 202 210 226 223 215 215 211 209 210 208 209 213 217 219 220 219 217 217 217 213 211 211 209 208 208 207 206 207 208 209 211 211 209 207 203 202 202 205 206 207 208 210 212 216 219 221 224 226 228
209 224 231 201 193 166 167 190 199 358 355 211 176 164 172 191 196 195 216 228 218 210 215 229 238 234 224 229 227 193 143 231 268 252 227 213 217 212 221 237 230 207 204 210 212 215 220 222 221 221 219 214 211 214 216 212 204 200 201 201 202 204 202 203 207 208 207 208 209 208 208 206 204 203 204 206 207 208 208 210 214 218 220 222 225 228
194 205 203 207 214 165 162 193 201 243 232 218 204 186 190 200 195 183 213 239 214 195 209 224 232 230 226 230 225 164 121 227 254 245 218 211 224 222 228 238 230 191 196 208 212 220 230 231 225 221 215 206 204 210 210 205 199 195 195 196 198 199 198 200 206 207 207 208 207 207 207 208 207 206 207 209 210 210 210 212 216 220 221 223 226 230
188 198 194 206 231 192 193 205 196 210 234 220 195 194 196 186 140 119 198 247 221 196 203 217 228 229 225 224 212 155 149 229 245 232 188 190 214 219 224 231 222 194 202 207 210 220 221 210 200 199 197 196 200 205 205 202 198 194 195 196 196 195 197 201 205 206 207 207 207 206 207 209 211 211 212 214 215 215 216 216 219 223 224 224 227 231
187 195 189 205 229 214 206 223 211 227 250 219 183 186 174 141 118 117 201 244 228 199 197 211 223 225 218 208 190 170 197 225 236 211 175 187 207 215 217 220 212 204 204 201 207 212 197 181 178 180 185 196 201 201 200 198 195 194 196 195 193 195 202 207 207 207 205 204 203 205 207 210 213 216 219 223 223 221 222 225 226 228 226 223 224 229
177 188 193 207 223 216 207 227 261 260 249 214 179 165 141 126 130 167 213 237 212 183 195 212 221 223 211 192 182 199 220 225 212 179 181 191 205 213 212 203 194 201 202 194 191 185 174 174 179 178 184 195 195 192 193 191 191 193 193 191 194 202 210 211 205 202 200 197 196 199 202 205 208 211 215 220 223 219 216 218 223 222 217 216 219 225
170 182 200 203 211 213 210 219 267 264 234 181 161 153 143 147 183 205 215 225 131 169 197 212 217 213 200 196 202 215 226 223 198 185 188 191 200 206 195 167 151 153 170 172 170 167 162 155 152 152 156 168 175 181 187 188 188 189 187 190 199 208 211 202 192 190 191 190 189 191 195 199 200 202 205 206 206 205 199 193 194 192 188 193 200 206
182 178 203 204 191 180 199 188 222 262 224 148 142 156 167 179 199 200 197 47 136 180 195 202 209 206 198 203 211 218 224 221 204 194 189 187 193 189 171 164 155 141 140 143 149 159 154 140 130 132 133 143 160 171 180 185 184 179 180 187 194 193 185 178 178 178 180 182 183 184 188 192 193 195 198 197 193 191 187 181 176 169 165 170 174 178
186 183 206 217 185 172 200 202 208 249 178 146 150 174 197 203 188 154 165 186 192 186 178 193 214 213 202 206 216 220 222 214 194 188 187 183 181 168 157 155 144 136 138 138 140 149 149 137 127 124 123 134 154 164 177 185 177 168 169 172 169 168 165 164 168 171 172 174 175 176 179 182 183 184 183 181 180 178 175 171 167 161 160 165 168 173
199 190 195 235 212 205 223 223 215 241 197 182 180 180 189 200 201 161 169 187 205 192 168 183 214 216 206 210 218 221 216 195 177 182 182 175 170 159 151 144 138 135 132 129 134 143 145 136 129 123 118 122 143 155 169 179 171 157 152 154 160 164 161 159 163 164 163 163 163 164 164 164 164 165 163 163 168 170 167 166 164 162 163 168 175 181
208 183 181 246 237 234 254 256 251 274 276 250 251 235 197 205 215 155 147 180 224 211 176 190 219 219 210 209 211 210 198 176 173 179 175 162 151 143 138 133 131 130 128 129 134 138 135 130 126 123 117 113 126 138 145 159 162 151 144 148 157 160 157 157 157 154 152 152 151 152 153 151 149 150 153 156 161 163 163 164 163 162 164 171 177 183
226 183 193 217 204 208 242 249 239 236 255 263 264 274 269 251 237 161 155 196 219 206 198 220 236 225 208 201 196 190 181 168 165 167 164 152 147 148 147 141 137 136 137 140 141 139 136 132 128 127 121 116 122 132 138 146 152 149 147 152 157 158 156 155 151 147 147 149 149 151 156 155 152 151 152 155 157 156 154 156 159 160 162 168 174 178
203 181 190 214 217 217 239 258 254 234 241 244 243 255 274 276 260 255 259 234 186 165 194 245 237 207 200 195 184 174 169 167 164 162 163 159 154 153 150 145 143 139 137 142 145 143 140 137 134 130 125 123 127 135 140 144 147 149 152 154 157 159 157 153 150 148 148 150 152 154 157 158 157 154 153 153 155 155 154 156 159 160 160 163 169 173
149 166 186 196 215 239 252 262 276 271 254 252 256 268 274 262 251 270 310 332 102 134 168 333 295 229 208 193 174 158 159 174 173 161 158 159 156 154 152 146 142 141 142 146 148 146 141 138 136 133 129 130 134 137 139 140 143 147 150 152 156 158 154 150 149 148 148 150 151 152 153 155 156 156 155 154 153 151 149 151 155 157 157 159 165 171
144 184 197 183 205 238 249 244 228 237 254 251 249 255 251 230 205 211 270 296 233 202 188 165 305 297 198 177 167 154 156 169 168 154 153 158 158 153 150 144 142 144 146 146 144 140 138 138 139 137 135 138 141 140 139 140 143 147 149 151 157 159 153 149 147 147 148 151 150 151 153 153 153 155 154 151 149 145 140 139 143 145 147 152 159 168
189 197 189 185 215 229 231 169 164 207 237 229 218 229 234 217 193 201 220 226 220 209 185 172 178 165 137 149 174 159 158 159 157 152 148 148 150 149 149 151 150 147 147 147 143 140 139 142 144 142 141 143 145 143 142 143 145 150 152 155 161 161 155 151 149 148 150 153 151 151 151 149 149 151 148 144 144 140 135 133 132 132 135 143 153 169